DMC3-FM3

Last updated on Sat Sep 05 2026 00:02:50 GMT+0000 (Coordinated Universal Time)

1 40717U 15032C 26247.71965931 .00000471 00000+0 60028-4 0 9993 2 40717 97.6438 113.1628 0005864 142.3352 217.8275 14.85806320601728
UTC large
Height (km)
Speed (km/s)
/
Latitude / Longitude
Inclination (degrees)
Orbital Period (minutes)
Azimuth
Elevation
Range (km)
Doppler Factor

Next 0 passes for location: London (51.5072 / 0.1276)

No passes found over London.
DMC3-FM3